Regional Weather Roundup
Issued by NWS

Home | Current Version | Previous Version | Text Only | Print | Product List | Glossary On
Versions: 1 2 3 4 5 6 7 8 9 10 11 12 13 14 15 16 17 18 19 20 21 22 23 24 25 26 27 28 29 30 31
000
ASUS44 KLIX 190413
RWRLA
LOUISIANA WEATHER ROUNDUP
NATIONAL WEATHER SERVICE NEW ORLEANS LA
1000 PM CST THU JAN 18 2018

NOTE: "FAIR" INDICATES FEW OR NO CLOUDS BELOW 12,000 FEET WITH NO
      SIGNIFICANT WEATHER AND/OR OBSTRUCTIONS TO VISIBILITY.
      SKY/WX - SKY CONDITION AND SIGNIFICANT WEATHER.
      TMP - AIR TEMPERATURE.    DP   - DEWPOINT TEMPERATURE.
      RH  - RELATIVE HUMIDITY.  PRES - PRESSURE.
      HX  - HEAT INDEX.         WCI  - WIND CHILL INDEX.

*  THESE STATIONS ARE NOT NWS OR FAA STATIONS AND ARE NOT UNDER
   NWS QUALITY CONTROL.

LAZ040-048-061>063-065-066-069-190500-
SOUTHEAST LOUISIANA

CITY           SKY/WX    TMP DP  RH WIND       PRES   REMARKS
N.O. INTL ARPT FAIR      34  23  64 CALM      30.43F
N.O. LAKEFRONT FAIR      37  23  56 CALM      30.44F
N.O. DOWNTOWN* FAIR      39  17  41 CALM      30.45S
RESERVE*       FAIR      32  25  76 CALM      30.43F
SLIDELL        FAIR      29  24  82 CALM      30.45R
BATON ROUGE    FAIR      30  24  78 CALM      30.43S
BOOTHVILLE     FAIR      36  28  73 CALM      30.44F
BELLE CHASSE   FAIR      28  24  85 CALM      30.44S
BOGALUSA*      FAIR      28  24  85 CALM      30.45R
GALLIANO*      FAIR      29  22  75 CALM      30.44S
NEW ROADS*     CLOUDY    30  22  69 CALM      30.43F
GONZALES*      FAIR      30  24  78 MISG      30.43S
HAMMOND*       FAIR      30  23  74 CALM      30.44S
HOUMA*         FAIR      31  24  77 CALM      30.43F
PORT FOURCHON* CLEAR     39  27  60 CALM      30.45R

$$

LAZ041-044-053-054-190500-
SOUTHWEST LOUISIANA

CITY           SKY/WX    TMP DP  RH WIND       PRES   REMARKS
LAKE CHARLES   CLOUDY    38  28  67 CALM      30.44S
LAFAYETTE      CLOUDY    36  28  73 CALM      30.44S
PATTERSON      FAIR      31  25  78 CALM      30.45S
SALT POINT       N/A     33  29  85 CALM      30.43S
NEW IBERIA     FAIR      31  24  75 CALM      30.44F
CHENAULT AIRPK CLOUDY    38  27  62 CALM      30.45R

$$

LAZ027-028-190500-
CENTRAL LOUISIANA

CITY           SKY/WX    TMP DP  RH WIND       PRES   REMARKS
FORT POLK      CLOUDY    39  20  47 S6        30.40F WCI  35
ALEXANDRIA INT CLOUDY    35  23  61 SE6       30.41F WCI  30
ALEXANDRIA     CLOUDY    31  24  75 CALM      30.42S

$$

LAZ001-002-190500-
NORTHWEST LOUISIANA

CITY           SKY/WX    TMP DP  RH WIND       PRES   REMARKS
SHREVEPORT     CLOUDY    38  19  46 S6        30.37F WCI  33
BARKSDALE AFB  CLOUDY    34  22  61 SE7       30.37F WCI  28
DTN SHREVEPORT CLOUDY    38  19  46 SE6       30.38F WCI  33

$$

LAZ014-016-190500-
NORTHEAST LOUISIANA

CITY           SKY/WX    TMP DP  RH WIND       PRES   REMARKS
MONROE         FAIR      25  19  78 CALM      30.43S
TALLULAH       FAIR      21  20  96 E3        30.43S

$$





USA.gov is the U.S. government's official web portal to all federal, state and local government web resources and services.